Theta_e
312 311 311 310 309 309 309 309 309 308 305 302 301 301 301 302 301 300 300 301 302 301 300 300 300 300 300 300 298 297 296 296 296 296 297 297 297 297 297 297 297 297 297 297 297 297 297 297 298 298 298 298
312 311 311 310 310 310 310 310 309 308 306 303 301 300 299 299 298 298 298 298 299 298 298 298 298 298 298 297 297 296 297 296 296 296 296 297 297 297 297 297 297 298 298 297 298 298 298 297 298 298 298 298
312 311 311 310 311 310 310 310 310 309 307 305 302 300 299 299 298 298 297 297 297 297 297 297 297 297 296 296 296 296 297 297 296 296 297 297 297 297 298 298 298 298 298 298 298 298 298 298 298 298 298 298
312 311 311 311 311 311 311 310 310 309 308 306 302 300 299 299 299 298 298 297 297 297 297 297 297 296 296 296 296 296 296 297 296 297 297 297 297 297 297 297 296 296 296 296 296 296 296 296 296 296 296 296
313 312 312 312 312 311 311 310 310 309 308 307 303 300 300 299 298 298 298 297 297 297 297 296 296 296 296 296 296 296 296 296 296 296 296 296 295 295 295 294 294 294 294 294 294 294 294 294 294 294 294 294
313 313 312 312 311 311 310 310 310 309 308 307 303 300 300 299 298 298 298 297 297 297 296 296 296 296 296 296 296 296 296 296 296 295 294 294 293 293 293 293 293 293 293 293 293 293 293 293 293 293 293 293
313 313 312 312 312 311 310 310 310 309 308 307 304 300 299 299 298 298 297 297 297 296 296 296 296 296 296 296 296 295 295 295 294 293 293 293 293 293 293 293 293 293 293 293 293 293 293 293 293 293 293 293
313 313 312 312 311 311 311 310 309 309 308 307 303 300 299 299 298 297 297 296 296 296 296 296 296 296 295 295 295 295 294 293 293 292 292 293 292 292 292 292 293 293 293 293 293 293 293 293 293 293 293 293
313 313 312 312 312 311 311 310 309 308 308 306 303 300 299 299 298 297 296 296 296 295 295 295 295 295 295 294 294 293 293 292 292 292 292 292 292 292 292 292 293 292 292 293 293 293 293 293 293 293 293 293
313 313 312 312 312 311 310 310 309 308 307 305 302 300 300 299 298 297 296 295 295 295 295 295 295 294 294 293 293 293 292 292 292 292 292 292 292 292 292 292 292 292 292 292 292 292 292 293 293 293 293 293
313 313 312 312 311 311 310 310 310 308 306 304 302 301 300 299 298 297 296 295 295 294 294 294 294 293 293 293 292 292 292 292 292 292 292 292 292 292 292 292 292 292 292 292 292 292 292 292 292 293 293 293
312 312 312 311 311 310 310 310 309 307 305 304 303 302 301 299 298 297 296 295 294 294 294 294 293 293 293 292 292 292 292 292 292 292 292 292 292 292 292 292 292 292 292 292 292 292 292 292 292 292 292 292
311 311 310 310 309 309 309 309 308 306 305 304 303 302 301 300 298 297 296 295 294 294 293 293 293 292 292 292 292 292 292 292 292 292 292 292 292 292 292 292 292 292 292 292 292 292 292 292 292 292 292 292
310 310 309 308 308 309 308 308 307 306 306 305 304 302 300 300 298 297 296 295 294 294 293 293 293 292 292 292 292 292 292 292 292 292 292 292 292 292 292 292 292 292 292 292 292 292 292 292 292 292 292 292
310 309 309 308 308 308 308 307 307 306 306 305 303 302 300 299 298 297 296 295 295 294 293 293 293 292 292 292 292 292 292 292 292 292 292 292 292 292 292 292 292 292 292 292 292 292 292 292 292 292 292 291
310 310 309 309 307 307 307 307 306 306 305 304 303 302 300 299 298 297 296 295 295 294 293 293 292 292 292 292 292 292 292 291 291 291 292 292 292 292 292 292 292 292 292 292 292 292 292 292 292 292 292 292
310 310 310 309 307 307 307 306 306 306 305 304 303 301 300 299 299 298 297 296 295 294 294 293 293 292 292 292 292 292 291 291 291 291 291 291 291 291 291 292 291 292 292 292 292 292 292 292 292 292 291 291
311 310 310 309 307 307 306 306 306 305 304 304 303 301 301 300 299 298 297 296 295 294 294 293 293 292 292 292 292 291 291 291 291 291 291 291 291 291 291 291 291 291 291 291 291 291 291 291 291 291 291 291
311 310 310 308 307 307 306 306 305 305 304 303 303 302 301 300 299 298 297 296 295 295 294 294 293 293 292 292 292 291 291 291 291 291 291 291 291 291 291 291 291 291 291 291 291 291 291 291 291 291 291 291
311 310 309 308 307 307 306 305 305 304 304 303 303 302 301 300 300 299 298 297 296 295 294 294 294 293 292 292 292 291 291 291 290 290 291 291 291 291 291 291 291 291 291 291 291 291 291 291 291 291 291 291
310 310 309 308 307 307 306 305 304 304 304 303 302 302 301 300 300 299 298 297 296 295 295 294 294 293 293 292 292 291 291 291 290 290 290 291 291 291 291 290 290 290 290 291 291 291 291 291 291 291 291 291
310 309 308 307 306 307 306 305 304 304 304 303 302 302 301 301 300 300 299 298 297 296 295 295 294 294 293 292 292 291 291 291 290 290 290 290 290 290 290 290 290 290 290 290 290 290 290 290 291 291 290 291
309 308 307 306 306 306 306 305 305 304 304 303 303 302 302 301 301 300 299 299 298 297 296 295 294 294 293 293 292 292 291 291 290 290 290 290 290 290 290 290 290 290 290 290 290 290 290 290 290 290 290 290
307 307 306 305 305 305 306 306 306 305 304 304 303 302 302 301 301 300 300 299 298 297 296 295 295 294 294 293 293 292 292 291 291 290 290 290 290 290 290 290 290 290 290 290 290 290 290 290 290 290 290 290
306 306 305 305 305 305 306 306 306 306 305 304 303 303 302 301 301 301 300 299 298 298 297 296 295 295 294 294 293 292 292 291 291 290 290 289 289 290 290 290 290 290 290 290 290 290 290 290 290 290 290 290
306 305 305 305 305 305 306 306 306 306 305 304 304 303 302 301 301 300 300 299 299 298 297 296 296 295 294 294 293 293 292 291 291 290 290 289 289 289 290 290 290 290 290 290 290 290 289 290 290 290 290 290
306 306 305 305 305 305 305 306 306 306 305 304 303 302 302 301 301 300 300 299 299 298 298 297 296 295 295 294 294 293 293 292 291 291 290 290 289 289 289 290 290 290 290 290 290 289 289 290 290 289 290 290
306 305 305 304 304 304 304 305 305 305 304 303 303 302 302 301 301 300 300 299 299 298 298 297 296 296 295 294 294 293 293 292 292 291 291 290 289 289 289 290 290 290 290 290 290 289 289 289 289 289 290 290
306 305 304 303 303 303 303 303 303 303 303 303 302 302 302 301 301 300 299 299 299 298 298 297 297 296 295 295 294 293 293 293 292 291 291 290 290 289 289 289 289 289 290 290 290 289 289 289 289 289 290 290
305 304 304 303 303 303 303 303 304 304 304 303 303 302 301 301 300 300 299 299 298 298 297 297 296 296 295 294 294 293 293 293 292 292 291 291 290 289 289 289 289 289 289 289 289 289 289 290 289 290 290 290
305 304 304 303 303 303 304 304 305 305 304 303 303 302 301 301 300 299 299 298 298 297 297 297 296 295 295 294 294 293 293 292 292 292 291 291 290 290 289 288 288 289 289 289 289 289 289 289 289 289 289 289
Wind_Speed
18 18 18 17 15 14 11 8 6 5 5 6 7 8 7 6 5 5 5 5 4 2 2 1 1 1 1 1 2 2 1 1 1 1 1 1 1 2 2 2 3 3 3 2 2 2 2 2 3 3 3 3
19 19 19 18 16 14 12 9 8 7 6 6 7 8 8 7 7 6 6 5 4 4 3 3 2 2 2 2 3 3 2 2 1 1 1 2 2 2 3 2 3 3 3 3 3 3 2 2 3 3 4 4
20 19 18 17 15 14 12 10 8 8 8 8 8 8 8 8 7 6 6 6 7 7 6 5 4 3 3 4 4 4 5 4 3 3 2 3 3 3 3 3 3 3 4 4 4 4 3 3 3 4 4 4
20 20 18 16 15 14 12 10 10 10 10 10 9 9 9 8 8 7 7 7 8 7 7 6 5 5 4 5 5 5 6 5 4 4 3 3 3 3 3 3 3 3 4 4 4 4 4 4 4 4 4 5
21 20 19 17 16 14 14 13 12 12 12 12 10 10 10 9 9 8 8 8 9 8 8 7 6 6 6 6 6 6 6 5 5 5 4 4 4 4 4 4 4 4 4 4 5 5 5 5 5 5 5 5
22 21 20 19 17 16 16 16 15 14 14 13 12 11 11 10 10 9 10 10 10 9 8 8 8 7 7 7 7 7 7 6 6 6 5 5 5 5 5 5 5 4 4 4 4 5 5 5 5 5 5 5
25 23 21 20 19 18 17 17 16 15 15 14 13 12 11 11 11 10 10 11 11 10 10 10 9 9 9 8 8 8 8 7 7 7 6 6 6 6 6 5 5 5 5 4 4 5 5 5 5 5 5 5
26 24 23 22 20 19 18 17 16 16 16 15 14 13 12 12 12 11 11 12 12 11 11 11 10 10 10 9 9 9 8 8 7 7 7 7 6 6 6 6 6 6 5 5 5 5 5 5 5 5 5 5
28 26 25 23 22 21 19 18 17 16 17 16 15 14 13 13 12 12 12 12 13 12 12 12 12 11 11 10 10 10 9 9 8 8 7 7 7 6 6 6 6 6 6 6 6 6 5 5 5 5 5 5
29 28 26 25 23 22 21 20 19 19 18 17 16 15 14 14 13 13 13 13 13 13 13 13 13 12 12 11 11 10 10 9 8 8 8 7 7 7 7 7 7 7 7 6 6 6 6 6 6 5 5 5
29 28 26 25 24 23 23 22 22 21 19 18 17 16 16 15 14 14 13 14 14 14 14 14 14 13 13 12 12 11 10 10 9 8 8 7 7 7 7 7 7 7 7 7 7 7 6 6 6 6 6 6
29 27 26 26 25 25 24 24 23 21 19 19 18 17 17 17 16 15 14 14 14 15 15 15 15 14 14 13 13 12 11 10 9 8 8 8 8 7 7 7 7 8 8 8 7 7 7 7 7 6 6 6
28 27 27 27 27 26 25 25 23 21 21 20 20 19 19 18 17 16 15 15 15 15 16 16 15 15 15 14 13 13 12 11 10 9 9 8 8 8 8 8 8 9 9 9 8 8 8 8 8 8 7 7
29 28 27 27 27 27 26 25 24 23 23 22 22 21 19 18 18 17 16 16 16 16 16 16 16 16 16 15 14 13 12 12 11 10 10 9 9 9 9 9 10 10 10 10 10 10 9 9 9 8 8 8
30 29 28 27 27 27 27 26 25 25 24 24 23 22 20 20 19 18 18 17 17 16 17 17 17 16 16 15 15 14 13 12 12 11 11 10 10 10 11 10 11 11 11 11 11 11 10 10 10 10 9 8
32 30 28 28 28 28 28 27 26 26 26 25 24 23 22 21 21 20 19 18 18 17 17 18 17 17 17 16 16 15 14 13 12 12 11 11 11 11 11 11 11 11 11 11 11 11 11 11 11 10 10 10
34 32 30 30 30 29 29 28 28 27 27 26 24 24 23 23 22 21 20 19 19 18 18 18 19 18 18 17 17 16 15 14 13 13 12 12 12 12 12 12 12 12 11 11 11 11 11 11 11 11 11 11
36 35 34 32 31 30 29 29 29 28 27 26 25 25 25 25 24 23 22 21 20 19 19 19 19 19 19 18 18 17 15 14 14 13 13 13 13 13 12 12 12 12 11 11 11 11 11 11 11 11 11 11
38 38 36 34 32 31 30 30 29 29 28 27 27 27 27 26 26 25 24 23 22 21 20 20 20 20 19 19 20 18 17 15 15 14 14 14 14 13 13 12 12 12 12 11 11 11 11 11 11 11 11 12
40 39 37 35 33 32 31 31 30 30 29 28 28 28 29 29 28 27 26 25 24 23 22 21 21 20 20 21 21 20 18 16 16 15 15 15 14 14 13 13 13 12 12 11 11 11 11 10 10 11 11 11
41 41 38 36 34 33 32 32 31 31 30 30 30 30 30 30 30 29 28 27 26 25 24 23 21 21 21 22 22 21 19 17 17 17 16 16 15 15 14 14 13 12 12 11 11 11 11 11 11 11 11 11
42 41 39 37 36 35 34 33 33 32 32 32 32 32 32 32 31 31 30 29 28 27 26 25 23 23 23 23 23 23 21 19 18 18 18 17 17 16 15 14 13 13 12 12 11 11 11 11 11 11 11 11
42 42 41 39 37 37 36 35 35 34 34 34 34 34 33 33 33 32 32 31 30 29 28 27 26 25 25 25 25 25 24 22 21 20 19 18 18 17 16 15 14 14 13 12 12 12 12 11 11 11 11 12
44 44 43 41 40 40 39 38 38 38 37 37 37 36 35 35 34 34 34 32 32 31 30 30 29 28 27 27 27 27 26 24 22 21 20 19 19 19 18 17 16 15 14 13 13 13 13 12 12 12 13 13
47 47 45 44 44 43 42 41 41 41 40 39 39 38 37 37 36 36 35 34 34 33 33 32 31 31 30 29 29 28 28 26 23 22 21 21 21 21 20 19 18 16 16 15 14 14 14 14 13 14 14 14
49 48 47 46 45 44 43 43 43 42 41 40 39 39 39 39 38 37 37 36 36 36 35 35 34 33 32 31 30 30 29 28 26 25 24 24 24 24 23 21 20 19 19 17 16 16 15 14 15 16 15 15
51 49 48 47 46 45 44 44 43 42 42 41 41 41 40 39 39 38 38 37 38 38 37 37 36 35 34 34 32 32 31 31 30 28 27 27 26 26 25 24 23 23 22 19 17 17 16 16 16 16 17 17
51 50 48 47 46 45 45 45 44 43 43 43 43 43 42 41 40 40 39 39 39 39 39 38 38 37 37 36 35 34 33 33 33 31 30 29 29 29 28 28 27 26 24 22 21 18 16 17 16 16 16 16
51 50 49 48 48 47 47 47 47 46 46 46 45 44 43 42 42 42 41 41 41 40 40 39 39 38 38 38 37 37 36 35 34 33 32 32 32 32 31 30 29 28 26 25 24 22 18 17 15 15 16 14
52 52 51 51 51 51 51 51 51 51 49 48 47 45 43 43 43 43 42 42 42 42 41 41 40 40 40 39 39 38 38 37 36 36 35 34 34 34 34 33 31 31 29 27 27 27 26 23 20 17 16 14
53 53 53 54 54 54 54 54 54 52 49 48 47 46 45 44 44 44 44 44 43 43 43 42 42 41 41 41 41 40 40 40 38 38 37 36 36 36 35 36 36 34 32 31 30 30 30 29 27 24 21 19
Wind_Direction
200 204 209 212 214 217 223 232 251 270 275 261 243 230 215 203 205 198 183 170 158 159 158 163 185 189 45 23 4 30 100 148 178 220 261 290 300 305 317 320 323 325 326 333 339 341 338 335 328 327 325 324
208 209 212 214 217 222 230 241 260 279 289 282 263 251 244 242 245 237 223 229 244 264 274 271 273 283 308 311 318 313 296 285 274 283 279 289 297 298 309 314 314 314 319 321 323 324 322 322 315 315 315 314
211 212 216 218 222 227 235 246 263 279 291 292 279 265 257 253 253 251 247 249 256 266 276 278 275 272 273 276 285 286 288 295 294 293 290 293 298 301 307 312 311 311 317 316 318 319 319 319 316 315 311 311
214 215 219 222 229 235 243 252 265 277 287 292 283 268 263 264 266 266 263 261 263 265 269 270 267 262 256 261 268 270 278 287 287 286 289 292 295 302 306 307 309 311 313 313 315 316 317 318 316 317 315 314
218 218 222 226 232 240 250 258 266 275 283 287 281 271 268 272 274 275 273 271 269 268 267 264 261 257 252 254 259 262 269 276 280 284 287 291 295 299 303 306 307 308 311 311 312 314 316 317 316 316 314 313
221 223 226 231 236 243 253 258 264 271 278 283 279 272 271 273 274 274 275 273 271 269 265 261 257 254 252 254 257 260 266 274 280 286 289 293 298 301 304 305 308 310 313 313 313 315 316 317 317 317 315 313
225 229 232 236 239 243 249 253 260 268 276 279 276 271 269 272 273 273 272 270 268 265 260 256 254 251 250 253 257 261 267 275 281 287 294 298 302 305 308 310 314 318 320 322 320 319 320 320 320 321 320 318
228 230 234 237 240 244 247 251 258 267 273 274 272 267 266 269 271 272 271 267 264 259 255 252 252 250 251 254 257 262 267 275 282 288 293 298 303 306 311 315 319 322 324 325 325 323 325 324 325 325 324 323
229 231 234 237 240 244 247 252 258 265 268 269 268 264 265 269 270 271 270 267 263 257 252 250 250 251 253 256 259 264 269 275 282 287 292 297 302 306 310 314 317 319 321 322 323 323 324 324 325 325 325 326
229 232 235 238 241 244 247 253 259 262 264 266 266 263 265 269 270 271 269 266 261 256 252 250 251 252 253 256 258 263 267 273 278 282 288 293 297 302 305 309 311 312 314 315 317 316 317 318 319 320 320 321
229 233 237 240 243 246 249 254 257 258 262 264 264 263 266 268 270 270 269 265 260 256 252 250 250 251 253 253 255 258 262 266 269 275 279 284 289 293 297 300 302 303 305 306 308 308 309 309 310 312 313 315
230 234 238 241 244 247 249 251 253 255 258 261 262 263 263 264 267 268 269 265 259 255 251 249 248 249 252 252 252 253 255 259 263 268 272 276 281 284 287 290 291 293 296 298 300 300 301 302 303 304 304 306
231 235 239 242 245 246 247 249 250 252 255 258 260 261 260 262 268 270 271 267 260 253 249 247 246 247 249 250 250 250 253 257 261 264 266 270 274 278 281 283 284 286 290 291 294 294 295 296 297 298 299 300
233 236 240 243 245 245 247 248 249 250 253 257 259 261 261 263 268 271 271 267 261 255 250 247 246 246 247 248 249 251 254 256 259 261 261 265 268 273 276 278 280 281 285 286 287 288 289 290 291 293 293 295
235 237 241 244 246 247 248 248 248 250 252 255 258 260 262 264 267 269 269 266 263 257 252 249 247 247 248 250 250 251 254 256 258 258 259 262 265 269 271 274 275 277 279 281 282 283 285 287 287 289 290 291
236 239 243 247 247 248 248 247 247 249 251 254 257 259 261 263 266 267 267 267 265 261 256 252 250 250 250 250 251 250 252 254 256 256 258 260 262 265 266 269 270 271 274 275 278 280 282 284 286 288 290 291
237 240 244 246 247 247 246 245 247 249 251 254 256 258 261 263 265 266 267 266 265 262 259 255 252 251 250 250 251 251 252 254 254 254 256 257 258 260 261 264 265 266 269 270 272 274 278 280 283 287 289 292
238 241 243 244 245 245 245 245 246 249 251 253 254 257 260 262 264 265 266 265 264 262 259 257 254 252 251 251 251 251 252 253 252 252 253 254 254 255 257 258 259 261 262 264 266 269 273 276 279 283 286 289
239 241 242 243 244 245 245 245 246 248 250 252 254 256 259 262 263 264 265 265 264 263 261 259 257 255 253 252 253 252 252 251 251 252 252 252 252 253 254 255 255 257 259 260 262 265 268 272 276 279 282 285
241 241 241 242 245 246 246 246 247 249 250 253 254 256 259 261 263 263 264 264 264 263 262 261 259 257 255 253 253 253 252 251 251 251 250 250 251 252 252 252 252 253 255 256 259 262 265 268 272 275 278 281
242 242 242 243 244 244 245 246 248 250 251 252 254 255 258 259 261 262 263 263 263 263 263 263 261 259 256 254 254 254 254 252 251 250 250 249 249 250 249 249 250 251 253 255 257 261 264 268 270 274 277 280
243 243 244 244 243 244 245 247 249 250 250 252 253 255 256 257 259 260 261 261 262 263 264 264 263 261 259 257 256 256 255 253 251 249 249 249 248 249 248 247 248 248 250 253 257 260 263 267 270 274 277 280
243 244 244 243 241 242 244 245 247 248 249 251 252 253 255 256 258 259 260 261 262 263 264 264 263 263 261 259 258 257 256 253 251 250 250 250 249 249 247 246 245 245 248 250 254 258 262 266 269 273 276 278
240 240 241 241 240 242 243 245 247 249 250 251 252 253 254 255 256 258 259 260 260 262 263 263 263 262 261 260 258 257 256 255 254 254 254 253 251 250 248 245 244 245 247 247 250 255 259 263 266 269 272 274
238 238 239 240 241 243 246 248 249 251 252 253 254 254 254 255 255 256 257 258 259 260 261 262 261 261 260 259 259 258 258 258 256 254 252 249 247 246 245 244 244 245 244 244 246 250 254 257 261 265 266 267
240 240 241 243 246 248 250 251 252 255 257 258 258 257 256 257 257 257 258 258 258 259 259 260 260 260 260 260 260 260 258 256 253 251 248 245 244 243 244 243 242 242 241 242 245 246 247 251 255 258 259 261
242 244 245 247 249 251 253 254 256 258 259 259 257 257 257 258 259 259 259 259 259 258 258 259 259 260 260 260 261 260 258 256 253 251 248 246 244 244 243 242 240 240 240 240 241 239 240 247 251 252 253 254
244 245 246 247 248 250 252 254 256 256 256 255 254 255 256 258 259 259 259 259 258 258 258 258 259 260 260 260 260 260 259 257 255 253 251 250 246 244 243 242 241 240 239 238 237 234 234 240 244 246 251 252
243 244 243 243 244 245 247 248 250 250 251 251 252 253 256 257 258 258 258 258 258 258 258 258 259 259 259 259 259 259 259 258 257 256 254 253 250 248 247 246 244 242 241 240 238 235 233 235 237 244 250 249
242 242 243 243 243 243 244 246 247 249 251 253 254 257 258 258 258 258 258 258 258 258 258 257 257 257 258 258 258 258 258 258 257 256 254 253 252 250 249 248 245 243 243 242 239 238 240 241 243 248 249 244
243 243 244 245 246 247 249 250 252 255 257 258 259 260 260 260 260 260 260 259 259 258 258 258 257 257 257 257 257 257 257 257 257 257 256 254 253 252 251 248 246 245 244 243 242 241 243 244 246 249 249 247